Chamblee, GA

7:14 AM EST on February 11, 2016 (GMT -0500)
Dekalb-Peachtree

Weather History for KPDK - June, 2014

Change the Weather History Date:

Friday, June 6, 2014

  Actual Average Record
Temperature  
Mean Temperature 76 °F 75 °F  
Max Temperature 86 °F 85 °F 95 °F (2008)
Min Temperature 65 °F 65 °F 55 °F (2006)
Cooling Degree Days 11 10  
Month to date cooling degree days 64 56  
Year to date cooling degree days 281 267  
Since 1 June cooling degree days 64 56  
Growing Degree Days 24 (Base 50)    
Moisture  
Dew Point 66 °F    
Average Humidity 76    
Maximum Humidity 93    
Minimum Humidity 58    
Precipitation  
Precipitation T in 0.13 in 0.50 in (2002)
Month to date precipitation 0.11 0.79  
Year to date precipitation 18.99 23.28  
Sea Level Pressure  
Sea Level Pressure 29.92 in    
Wind  
Wind Speed 6 mph (WNW)    
Max Wind Speed 17 mph    
Max Gust Speed 31 mph    
Visibility 10 miles    
Events Rain , Thunderstorm    
T = Trace of Precipitation, MM = Missing Value Source: NWS Daily Summary

Daily Weather History Graph

Daily Weather History Graph

Search for Another Location

Airport or City:

Trip Planner

Search our weather history database for the weather conditions in past years. The results will help you decide how hot, cold, wet, or windy it might be!

Date:

Astronomy

Jun. 06, 2014 Rise Set
Actual Time 6:26 AM EDT 8:45 PM EDT
Civil Twilight 5:57 AM EDT 9:14 PM EDT
Nautical Twilight 5:21 AM EDT 9:50 PM EDT
Astronomical Twilight 4:43 AM EDT 10:28 PM EDT
Moon 2:21 PM EDT (6/6) 1:59 AM EDT (6/6)
Length of Visible Light 15h 17m
Length of Day
14h 19m
First Quarter, 58% of the Moon is Illuminated
Jun 6
First Quarter
Jun 13
Full
Jun 19
Last Quarter
Jun 27
New
Jul 5
First Quarter

Hourly Weather History & Observations

Time (EDT) Temp. Heat Index Dew Point Humidity Pressure Visibility Wind Dir Wind Speed Gust Speed Precip Events Conditions
12:53 AM 69.1 °F - 64.9 °F 87% 29.90 in 10.0 mi NNW 9.2 mph - N/A Thunderstorm Thunderstorm
1:08 AM 68.0 °F - 64.4 °F 88% 29.95 in 10.0 mi NNW 5.8 mph - N/A Thunderstorm Thunderstorm
1:53 AM 68.0 °F - 64.9 °F 90% 29.89 in 10.0 mi WNW 6.9 mph - N/A Thunderstorm Thunderstorm
2:53 AM 68.0 °F - 64.0 °F 87% 29.88 in 10.0 mi WNW 4.6 mph - N/A Thunderstorm Thunderstorm
3:53 AM 66.9 °F - 64.0 °F 90% 29.88 in 10.0 mi West 4.6 mph - N/A Thunderstorm Thunderstorm
4:53 AM 66.0 °F - 63.0 °F 90% 29.88 in 10.0 mi West 3.5 mph - N/A Thunderstorm Thunderstorm
5:53 AM 66.0 °F - 63.0 °F 90% 29.91 in 10.0 mi WSW 3.5 mph - N/A Thunderstorm Thunderstorm
6:25 AM 64.4 °F - 62.6 °F 94% 29.96 in 9.0 mi SW 3.5 mph - N/A   Clear
6:53 AM 64.9 °F - 63.0 °F 93% 29.93 in 8.0 mi Calm Calm - N/A   Clear
7:08 AM 66.2 °F - 62.6 °F 88% 29.98 in 9.0 mi West 3.5 mph - N/A   Partly Cloudy
7:51 AM 66.2 °F - 64.4 °F 94% 29.98 in 9.0 mi West 3.5 mph - N/A   Mostly Cloudy
7:53 AM 66.9 °F - 64.0 °F 90% 29.94 in 9.0 mi West 3.5 mph - N/A   Mostly Cloudy
8:53 AM 71.1 °F - 64.9 °F 81% 29.94 in 10.0 mi Calm Calm - N/A   Scattered Clouds
9:53 AM 73.9 °F - 66.0 °F 76% 29.95 in 10.0 mi WSW 5.8 mph - N/A   Clear
10:53 AM 78.8 °F - 66.2 °F 65% 29.96 in 10.0 mi WNW 5.8 mph - N/A   Clear
11:53 AM 82.9 °F 85.8 °F 68.0 °F 60% 29.91 in 10.0 mi Variable 5.8 mph - N/A   Scattered Clouds
12:53 PM 81.0 °F 83.3 °F 66.9 °F 62% 29.92 in 10.0 mi WNW 6.9 mph - N/A   Overcast
1:53 PM 82.0 °F 84.5 °F 66.9 °F 60% 29.91 in 10.0 mi NW 12.7 mph - N/A   Mostly Cloudy
2:53 PM 81.0 °F 84.4 °F 70.0 °F 69% 29.91 in 10.0 mi WNW 9.2 mph - 0.00 in   Mostly Cloudy
3:24 PM 80.6 °F 83.9 °F 69.8 °F 70% 29.92 in 10.0 mi North 6.9 mph 19.6 mph 0.00 in Rain , Thunderstorm Light Thunderstorms and Rain
3:35 PM 82.4 °F 85.4 °F 68.0 °F 62% 29.91 in 10.0 mi Calm Calm - 0.00 in   Scattered Clouds
3:53 PM 84.9 °F 89.4 °F 70.0 °F 61% 29.87 in 10.0 mi WNW 9.2 mph - 0.00 in   Clear
4:53 PM 84.0 °F 87.8 °F 69.1 °F 61% 29.89 in 10.0 mi NNW 11.5 mph - N/A   Partly Cloudy
5:53 PM 82.0 °F 84.5 °F 66.9 °F 60% 29.89 in 10.0 mi NW 5.8 mph - N/A   Clear
6:53 PM 81.0 °F 83.3 °F 66.9 °F 62% 29.90 in 10.0 mi WNW 5.8 mph - N/A   Partly Cloudy
7:53 PM 79.0 °F - 66.9 °F 66% 29.92 in 10.0 mi WSW 5.8 mph - N/A   Clear
8:53 PM 77.0 °F - 66.0 °F 69% 29.94 in 10.0 mi West 8.1 mph - N/A   Clear
9:53 PM 73.9 °F - 66.9 °F 79% 29.92 in 10.0 mi West 6.9 mph - N/A   Clear
10:53 PM 73.0 °F - 66.9 °F 81% 29.92 in 10.0 mi West 9.2 mph - N/A   Clear
11:53 PM 71.1 °F - 64.0 °F 78% 29.84 in 10.0 mi East 3.5 mph - N/A   Clear